Weather in Banilov-Podgorny

Ukraine / Chernovtci District     48°05′38″N   25°29′34″E
temp.,
°C
wind,
m/s
gust,
m/s
humid.,
%
clouds,
%
prec.,
mm/h
press.,
hPa
HPBL,
m
19 september, sun
sun1900:00+8sw2292100 0.1 101126
03:00+9sw378785 0.1 1010187
06:00+10wsw41277100 0.0 1008425
09:00+10nnw3585100 0.1 1009431
12:00+6nne2396100 0.6 1011339
15:00+5n2397100 2.6 1013278
18:00+7n129581 0.1 1012251
21:00+6ese119784 0.1 101391
20 september, mon
mon2000:00+6n119877 0.0 101384
03:00+6nnw119890 0.0 1013147
06:00+6nnw129897 0.0 1013178
09:00+6n119594 0.0 1014253
12:00+9n2377100 0.1 1014802
15:00+9n3474100 0.1 1015802
18:00+7nnw4679100 0.0 1016748
21:00+5nnw2691100 0.0 1019545
21 september, tue
tue2100:00+4nnw2592100 0.0 1020519
03:00+4nnw2591100 0.0 1021468
06:00+4nnw258695 0.0 1021411
09:00+5nw367796 0.0 1022636
12:00+8nw595397 0.0 10221503
15:00+9nnw575589 0.0 10221180
18:00+8nnw5867100 0.0 1022874
21:00+5nw2582100 0.0 1024372
22 september, wed
wed2200:00+5nnw3788100 0.1 1024811
03:00+4wnw248998 0.1 1024248
06:00+3wnw2390100 0.0 102387
09:00+6w2368100 0.0 1022418
12:00+8nw3563100 0.1 10211153
15:00+8nw4662100 0.2 10191237
18:00+7nnw4881100 0.3 1019849
21:00+4wnw2690100 0.8 1020266
23 september, thu
thu2300:00+4wnw2489100 0.2 1019157
03:00+3wsw119286 0.3 101917
06:00+2wsw229366 0.0 101828
09:00+5wnw238199 0.0 1018364
12:00+7nw477298 0.5 10181201
15:00+8nw3569100 1.0 10171215
18:00+7wnw138284 0.4 1017334
21:00+4sw228973 0.4 101843